[[[{"header":{"parameterUnit":"kt","parameterCategory":2,"dx":1,"dy":1,"la1":30.253999710083008,"la2":30.299108505249023,"lo1":-89.0895004272461,"lo2":-89.04439544677734,"nx":28,"ny":28,"refTime":"2022-10-24T21:00:00:Z","depth":"0","parameterNumber":2,"parameterNumberName":"U-component_of_CURRENTS"},"data":[-0.3635,-0.3585,-0.361,-0.3511,-0.3543,-0.3447,-0.3446,-0.3459,-0.3556,-0.3626,-0.3773,-0.398,-0.4083,-0.4465,-0.4325,-0.4137,-0.4,-0.3878,-0.3862,-0.4079,-0.4106,-0.4131,-0.4091,-0.3883,-0.3883,-0.3488,-0.3486,-0.3484,-0.3745,-0.3767,-0.3813,-0.3865,-0.386,-0.3993,-0.4109,-0.4073,-0.4096,-0.4316,-0.4388,-0.4525,-0.4435,-0.4483,-0.439,-0.4232,-0.4096,-0.4113,-0.4064,-0.3965,-0.4209,-0.4164,-0.3967,-0.3967,-0.3967,-0.3967,-0.3967,-0.3967,-0.3944,-0.3949,-0.4026,-0.408,-0.417,-0.4243,-0.4236,-0.4415,-0.4511,-0.463,-0.4855,-0.4876,-0.493,-0.4754,-0.468,-0.4503,-0.449,-0.4361,-0.4401,-0.4395,-0.4234,-0.449,-0.4379,-0.438,-0.4382,-0.4383,-0.4384,0,-0.4088,-0.4141,-0.4204,-0.4291,-0.4362,-0.4458,-0.458,-0.465,-0.4889,-0.4989,-0.5124,-0.5163,-0.5173,-0.5035,-0.492,-0.4807,-0.4726,-0.4744,-0.4746,-0.45,-0.4454,-0.4309,-0.462,-0.4557,-0.456,-0.4562,-0.4563,-0.4564,-0.421,-0.4246,-0.4412,-0.4449,-0.4517,-0.461,-0.4687,-0.4881,-0.4967,-0.5193,-0.5231,-0.5298,-0.5317,-0.5243,-0.513,-0.5014,-0.4945,-0.4816,-0.4745,-0.4721,-0.4727,-0.471,-0.4598,-0.4595,-0.4591,-0.4588,-0.4586,0,-0.4258,-0.4379,-0.4471,-0.4644,-0.4691,-0.4733,-0.4902,-0.4969,-0.5113,-0.5215,-0.5244,-0.5377,-0.5368,-0.5348,-0.5276,-0.5196,-0.5035,-0.5048,-0.4922,-0.4877,-0.4733,-0.4756,-0.4688,-0.4552,-0.4925,-0.4923,-0.4922,0,-0.4374,-0.4434,-0.4598,-0.4642,-0.4731,-0.487,-0.4959,-0.5059,-0.5185,-0.5262,-0.5341,-0.5382,-0.5364,-0.535,-0.5266,-0.5155,-0.5202,-0.5025,-0.4996,-0.4884,-0.4867,-0.48,-0.4812,-0.5085,-0.5085,-0.5085,-0.5085,0,-0.4396,-0.4563,-0.4644,-0.4698,-0.4883,-0.4934,-0.5011,-0.5133,-0.5197,-0.5295,-0.534,-0.5365,-0.5351,-0.5302,-0.5216,-0.5196,-0.5167,-0.5127,-0.5005,-0.4999,-0.484,-0.4819,-0.4841,-0.5085,-0.5085,-0.5085,-0.5085,0,-0.4491,-0.4578,-0.4684,-0.4847,-0.4882,-0.4941,-0.5063,-0.5135,-0.5232,-0.5265,-0.529,-0.5278,-0.529,-0.5215,-0.5179,-0.5176,-0.5105,-0.5063,-0.5061,-0.495,-0.4893,-0.4765,-0.48,-0.4777,-0.5015,-0.5015,-0.5015,0,-0.4491,-0.4608,-0.4696,-0.4796,-0.486,-0.4941,-0.502,-0.5089,-0.5127,-0.5177,-0.5167,-0.5176,-0.5116,-0.5105,-0.5104,-0.5053,-0.505,-0.5044,-0.4957,-0.4954,-0.4892,-0.496,-0.4826,-0.4803,-0.5011,-0.5011,-0.5011,0,-0.4479,-0.4645,-0.465,-0.4708,-0.4818,-0.4856,-0.4938,-0.5012,-0.5057,-0.5062,-0.5109,-0.5089,-0.5058,-0.5043,-0.5007,-0.5008,-0.5039,-0.4948,-0.4944,-0.4947,-0.5028,-0.4962,-0.4958,-0.5015,-0.5015,-0.5016,-0.5008,0,-0.4562,-0.4619,-0.4647,-0.4734,-0.4782,-0.483,-0.4889,-0.492,-0.4924,-0.494,-0.4961,-0.492,-0.4906,-0.4908,-0.4871,-0.4909,-0.4876,-0.4842,-0.4798,-0.4863,-0.4849,-0.4853,-0.4777,-0.4775,-0.4773,-0.4771,0,0,-0.452,-0.4584,-0.4622,-0.4681,-0.4721,-0.4742,-0.4795,-0.4816,-0.4832,-0.4846,-0.4811,-0.4794,-0.4758,-0.4789,-0.4804,-0.4785,-0.4766,-0.4772,-0.483,-0.4837,-0.4843,-0.4834,-0.4839,-0.4768,-0.4767,-0.4766,-0.4766,0,-0.4545,-0.4573,-0.4609,-0.4654,-0.4708,-0.4729,-0.4746,-0.4776,-0.4777,-0.4798,-0.4751,-0.4744,-0.4717,-0.4706,-0.4696,-0.4757,-0.4701,-0.4748,-0.4818,-0.4813,-0.4823,-0.4831,-0.4825,-0.4831,-0.4761,-0.4761,-0.4761,0,-0.454,-0.458,-0.4593,-0.4654,-0.467,-0.4719,-0.4692,-0.4723,-0.4755,-0.4681,-0.469,-0.4656,-0.4617,-0.4629,-0.4627,-0.4604,-0.4644,-0.4627,-0.4637,-0.4628,-0.4619,-0.4631,-0.4641,-0.4508,-0.4507,-0.4507,0,0,-0.4555,-0.4588,-0.4638,-0.466,-0.4682,-0.4693,-0.4703,-0.4704,-0.4699,-0.4688,-0.4656,-0.4622,-0.4607,-0.4598,-0.457,-0.4585,-0.4553,-0.4601,-0.4613,-0.4623,-0.462,-0.4614,-0.4625,-0.4506,-0.4506,-0.4506,0,0,-0.4551,-0.461,-0.4611,-0.4646,-0.4678,-0.4694,-0.4699,-0.4696,-0.4676,-0.4661,-0.461,-0.4598,-0.4597,-0.4561,-0.4548,-0.4565,-0.451,-0.4511,-0.4604,-0.4618,-0.4629,-0.4633,-0.4488,0,0,0,0,0,-0.459,-0.4612,-0.4614,-0.4624,-0.4658,-0.4701,-0.4702,-0.4686,-0.4661,-0.4671,-0.4633,-0.4592,-0.4545,-0.4532,-0.4524,-0.4558,-0.4487,-0.449,-0.4493,-0.4613,-0.4629,-0.4642,0,0,0,0,0,0,-0.4594,-0.4606,-0.4614,-0.4635,-0.4643,-0.4699,-0.4656,-0.4651,-0.4659,-0.4653,-0.4601,-0.459,-0.455,-0.4533,-0.4526,-0.4561,-0.449,-0.4488,-0.4491,-0.4493,-0.4619,-0.4631,-0.4642,0,0,0,0,0,-0.4597,-0.4607,-0.4669,-0.4633,-0.464,-0.4634,-0.4654,-0.465,-0.4644,-0.4605,-0.4593,-0.4634,-0.4552,-0.4542,-0.4528,-0.4565,-0.4494,-0.4492,-0.449,-0.4492,-0.4494,-0.4625,0,0,0,0,0,0,-0.46,-0.4586,-0.4669,-0.467,-0.462,-0.4629,-0.463,-0.4648,-0.4592,-0.4586,-0.4634,-0.463,-0.4554,-0.4546,-0.4539,-0.4571,-0.4498,-0.4496,-0.4494,-0.4492,-0.4493,-0.4495,0,0,0,0,0,0,-0.4581,-0.4587,-0.4669,-0.4654,-0.4652,-0.4625,-0.4626,-0.4608,-0.459,-0.4622,-0.4619,-0.4633,-0.4553,-0.4549,-0.4543,-0.4515,-0.4501,-0.4498,-0.4497,-0.4496,-0.4493,-0.4494,0,0,0,0,0,0,-0.4583,-0.4587,-0.4652,-0.4652,-0.465,-0.4654,-0.4604,-0.4626,-0.4619,-0.4622,-0.4615,-0.4613,-0.4556,-0.455,-0.4546,-0.4521,-0.4516,-0.4501,-0.4499,-0.4498,-0.4497,0,0,0,0,0,0,0,-0.4584,-0.456,-0.4673,-0.465,-0.4648,-0.4683,-0.4682,-0.4681,-0.4619,-0.4617,-0.4615,-0.4614,-0.4514,-0.4511,-0.4509,-0.4526,0,0,-0.4501,-0.45,0,0,0,0,0,0,0,0,-0.4557,-0.4559,-0.4673,-0.4674,-0.4675,-0.4683,-0.4682,-0.4681,-0.4618,-0.4617,-0.4616,-0.4614,-0.4513,-0.4511,-0.4509,0,0,0,0,0,0,0,0,0,0,0,0,0,0,0,-0.4673,-0.4674,0,-0.4682,-0.4682,-0.4681,-0.4618,-0.4617,-0.4616,-0.4615,-0.4512,-0.4511,-0.4509,0,0,0,0,0,0,0,0,0,0,0,0,0,0,0,0,0,0,0,0,0,0,0,0,0,0,0,0,0,0,0,0,0,0,0,0,0,0,0,0,0,0,0,0,0,0,0,0,0,0,0,0,0,0,0,0,0,0,0,0,0,0,0,0,0,0,0,0,0]}],[{"header":{"parameterUnit":"kt","parameterCategory":2,"dx":1,"dy":1,"la1":30.253999710083008,"la2":30.299108505249023,"lo1":-89.0895004272461,"lo2":-89.04439544677734,"nx":28,"ny":28,"refTime":"2022-10-24T21:00:00:Z","depth":"0","parameterNumber":3,"parameterNumberName":"V-component_of_CURRENTS"},"data":[-0.1767,-0.1945,-0.2036,-0.2273,-0.2371,-0.2451,-0.2438,-0.2254,-0.1934,-0.1174,-0.0454,0.0176,0.1503,0.3352,0.4347,0.4371,0.4657,0.4584,0.4723,0.4215,0.4136,0.4061,0.4121,0.482,0.4821,0.5498,0.5504,0.551,-0.1706,-0.182,-0.1974,-0.2121,-0.2238,-0.2226,-0.2225,-0.2156,-0.1998,-0.1563,-0.114,0.0089,0.1103,0.2007,0.312,0.3475,0.3513,0.3608,0.3714,0.379,0.3015,0.3045,0.3527,0.3527,0.3526,0.3526,0.3525,0.3525,-0.1594,-0.1691,-0.1797,-0.1934,-0.2014,-0.2078,-0.2099,-0.202,-0.1899,-0.1561,-0.1205,-0.0631,0.0425,0.1423,0.1768,0.2524,0.2366,0.2698,0.2781,0.2795,0.2979,0.2047,0.2386,0.2384,0.2383,0.2382,0.238,0,-0.1503,-0.1521,-0.1594,-0.1749,-0.1809,-0.1856,-0.1851,-0.184,-0.1625,-0.1451,-0.112,-0.0805,-0.0055,0.0652,0.1306,0.1578,0.1995,0.1842,0.2154,0.2451,0.2508,0.2692,0.1679,0.1954,0.195,0.1947,0.1945,0.1943,-0.136,-0.1422,-0.1491,-0.1557,-0.1564,-0.1598,-0.1613,-0.1469,-0.1419,-0.1101,-0.105,-0.0636,-0.0288,0.0406,0.0904,0.1398,0.1587,0.1732,0.1702,0.1988,0.2134,0.217,0.2288,0.1897,0.1903,0.1908,0.1912,0,-0.1284,-0.1279,-0.1362,-0.1359,-0.1366,-0.1407,-0.1345,-0.1325,-0.1148,-0.103,-0.0969,-0.0592,-0.0201,0.0181,0.06,0.0826,0.1376,0.1286,0.1345,0.1418,0.1905,0.199,0.2431,0.2608,0.157,0.1574,0.1578,0,-0.115,-0.1195,-0.1193,-0.1231,-0.1292,-0.1189,-0.1183,-0.1086,-0.0927,-0.0846,-0.0582,-0.0438,-0.0076,0.0202,0.0448,0.0831,0.0804,0.1047,0.1116,0.1189,0.1204,0.1547,0.1645,0.0992,0.0991,0.0989,0.0988,0,-0.103,-0.1048,-0.1114,-0.1106,-0.1056,-0.1041,-0.0996,-0.0828,-0.0768,-0.0561,-0.0485,-0.0223,-0.0089,0.0147,0.0458,0.0428,0.0798,0.0796,0.1032,0.104,0.1217,0.1237,0.1666,0.0986,0.0985,0.0985,0.0984,0,-0.0893,-0.0927,-0.0989,-0.0967,-0.0958,-0.094,-0.0838,-0.0774,-0.0571,-0.0472,-0.0304,-0.0153,0.0045,0.01,0.0417,0.0345,0.0493,0.0626,0.0638,0.0782,0.0831,0.1096,0.1212,0.1528,0.0775,0.0773,0.0771,0,-0.0804,-0.0866,-0.08,-0.0829,-0.0851,-0.0721,-0.0668,-0.0557,-0.0436,-0.0325,-0.0141,-0.0033,0.0061,0.0118,0.0238,0.0416,0.0511,0.0408,0.068,0.0688,0.0777,0.0847,0.0963,0.1163,0.0742,0.0745,0.0747,0,-0.0721,-0.0696,-0.0695,-0.0708,-0.0616,-0.0595,-0.0526,-0.0429,-0.0384,-0.0244,-0.0164,-0.0001,0.0087,0.016,0.0268,0.0368,0.0467,0.0418,0.0425,0.0489,0.0684,0.0792,0.0823,0.0515,0.0518,0.052,0.0724,0,-0.0619,-0.0622,-0.0631,-0.0597,-0.0553,-0.0543,-0.0431,-0.0373,-0.0297,-0.0205,-0.0081,0.0059,0.0183,0.0229,0.0292,0.0389,0.0416,0.0451,0.0489,0.0492,0.0581,0.0598,0.0411,0.0412,0.0414,0.0415,0,0,-0.0544,-0.0556,-0.0482,-0.0485,-0.0459,-0.0348,-0.0354,-0.0276,-0.0159,-0.0108,-0.008,0.0125,0.0216,0.0335,0.0339,0.0386,0.0447,0.0392,0.048,0.0486,0.0493,0.0577,0.0592,0.0417,0.0417,0.0418,0.0418,0,-0.0503,-0.0466,-0.0488,-0.0442,-0.0379,-0.0315,-0.0311,-0.0213,-0.0158,-0.0083,0.0009,0.0101,0.0224,0.0318,0.0378,0.0396,0.0478,0.0413,0.0382,0.0487,0.0491,0.0496,0.0579,0.0592,0.0421,0.0421,0.0421,0,-0.0438,-0.0404,-0.0402,-0.0341,-0.029,-0.0264,-0.019,-0.0152,-0.0118,-0.0001,0.0067,0.0152,0.0265,0.0341,0.038,0.0399,0.0515,0.0468,0.0464,0.046,0.0571,0.0576,0.058,0.0527,0.0527,0.0527,0,0,-0.041,-0.0409,-0.0325,-0.0325,-0.0301,-0.0211,-0.0178,-0.0129,-0.0048,-0.0014,0.0077,0.017,0.0253,0.0306,0.0382,0.0454,0.052,0.0477,0.0472,0.0468,0.0461,0.057,0.0574,0.0527,0.0526,0.0526,0,0,-0.0387,-0.0321,-0.0292,-0.029,-0.0227,-0.0126,-0.0116,-0.0064,0.0014,0.0019,0.013,0.0158,0.0229,0.0295,0.0279,0.0396,0.0422,0.0428,0.0351,0.0346,0.0341,0.0313,0.0347,0,0,0,0,0,-0.0314,-0.0333,-0.0308,-0.0297,-0.0207,-0.0143,-0.0125,-0.0053,-0.003,-0.0019,0.0069,0.0119,0.031,0.0298,0.0324,0.0337,0.0523,0.0523,0.0524,0.0442,0.0436,0.0431,0,0,0,0,0,0,-0.0309,-0.0298,-0.0306,-0.0214,-0.0192,-0.0142,-0.0089,-0.0069,-0.0029,-0.0021,0.0101,0.0123,0.0198,0.0291,0.0313,0.0324,0.034,0.0523,0.0524,0.0524,0.044,0.0435,0.0431,0,0,0,0,0,-0.0305,-0.0296,-0.0181,-0.0212,-0.0193,-0.0098,-0.0089,-0.0072,-0.0036,0.008,0.0102,0.0013,0.0196,0.022,0.0304,0.0312,0.0325,0.0333,0.0523,0.0524,0.0524,0.0437,0,0,0,0,0,0,-0.0302,-0.0264,-0.0174,-0.0164,-0.0214,-0.0098,-0.0082,-0.0075,0.0065,0.0085,-0.0003,0.0001,0.0195,0.0214,0.0232,0.0303,0.0314,0.0322,0.0326,0.0524,0.0524,0.0524,0,0,0,0,0,0,-0.0268,-0.0257,-0.0169,-0.0176,-0.0166,-0.0099,-0.0085,-0.0006,0.0066,-0.0025,-0.0017,-0.0003,0.0173,0.0209,0.0224,0.0345,0.0305,0.0312,0.0317,0.0321,0.0524,0.0524,0,0,0,0,0,0,-0.0261,-0.0251,-0.0178,-0.017,-0.0161,-0.0036,-0.0025,0.0068,0.0041,-0.0031,0.0042,0.0043,0.0167,0.0184,0.0218,0.0332,0.0342,0.0305,0.031,0.0314,0.0316,0,0,0,0,0,0,0,-0.0255,-0.0355,-0.024,-0.0165,-0.0157,-0.0069,-0.0066,-0.0062,0.0041,0.0042,0.0042,0.0043,0.0261,0.027,0.0278,0.0322,0,0,0.0304,0.0308,0,0,0,0,0,0,0,0,-0.0356,-0.0355,-0.024,-0.0238,-0.0236,-0.0068,-0.0066,-0.0063,0.0041,0.0042,0.0042,0.0042,0.0264,0.027,0.0277,0,0,0,0,0,0,0,0,0,0,0,0,0,0,0,-0.0239,-0.0238,0,-0.0068,-0.0066,-0.0064,0.0041,0.0042,0.0042,0.0042,0.0266,0.0271,0.0277,0,0,0,0,0,0,0,0,0,0,0,0,0,0,0,0,0,0,0,0,0,0,0,0,0,0,0,0,0,0,0,0,0,0,0,0,0,0,0,0,0,0,0,0,0,0,0,0,0,0,0,0,0,0,0,0,0,0,0,0,0,0,0,0,0,0,0,0,0]}]],[[{"header":{"parameterUnit":"kt","parameterCategory":2,"dx":1,"dy":1,"la1":30.253999710083008,"la2":30.299108505249023,"lo1":-89.0895004272461,"lo2":-89.04439544677734,"nx":28,"ny":28,"refTime":"2022-10-24T21:00:00:Z","depth":"2","parameterNumber":2,"parameterNumberName":"U-component_of_CURRENTS"},"data":[-0.3452,-0.3401,-0.3424,-0.3323,-0.3365,-0.3238,-0.3231,-0.3122,-0.3084,-0.2883,-0.2795,-0.3053,-0.3228,-0.27,-0.2628,-0.2381,-0.2572,-0.2269,-0.3258,-0.315,-0.3204,-0.3395,-0.3273,0,0,0,0,0,-0.3561,-0.3594,-0.364,-0.3693,-0.3675,-0.3819,-0.3924,-0.3826,-0.3799,-0.3878,-0.3884,-0.3523,-0.3382,-0.3385,-0.3046,-0.3044,-0.2963,-0.2926,-0.2786,-0.2852,-0.291,-0.2783,-0.2266,-0.2263,-0.226,-0.2257,0,0,-0.3763,-0.3768,-0.3846,-0.3901,-0.3991,-0.4059,-0.4049,-0.4196,-0.4276,-0.4314,-0.4568,-0.4448,-0.4462,-0.4037,-0.3878,-0.3719,-0.3988,-0.3789,-0.3806,-0.3833,-0.3756,-0.3709,-0.3496,-0.3501,-0.3506,-0.351,-0.3513,0,-0.3899,-0.3954,-0.4017,-0.4104,-0.4176,-0.4269,-0.439,-0.4455,-0.4688,-0.4777,-0.4903,-0.4934,-0.4904,-0.461,-0.448,-0.4346,-0.4349,-0.4198,-0.4793,-0.3918,-0.3869,-0.3841,-0.387,-0.3701,-0.3707,-0.3712,-0.3715,-0.3718,-0.4016,-0.4053,-0.4217,-0.4254,-0.4323,-0.4418,-0.4494,-0.4684,-0.4766,-0.4986,-0.5022,-0.5089,-0.5098,-0.5025,-0.4871,-0.4745,-0.4838,-0.4345,-0.4239,-0.4746,-0.4719,-0.472,-0.472,-0.3788,-0.3779,-0.3772,-0.3766,0,-0.4062,-0.418,-0.4271,-0.4441,-0.4488,-0.4533,-0.4699,-0.4765,-0.4908,-0.5007,-0.5037,-0.5166,-0.5158,-0.5137,-0.5068,-0.4989,-0.4907,-0.4843,-0.4461,-0.4388,-0.4733,-0.4731,-0.4726,-0.4724,-0.4722,-0.472,-0.4719,0,-0.4173,-0.4233,-0.4393,-0.4437,-0.4526,-0.4661,-0.4752,-0.4849,-0.4973,-0.5047,-0.5127,-0.5167,-0.5152,-0.5138,-0.5056,-0.4948,-0.4995,-0.482,-0.4792,-0.4455,-0.442,-0.48,-0.4791,-0.488,-0.488,-0.488,-0.488,0,-0.4193,-0.4355,-0.4436,-0.4488,-0.4667,-0.472,-0.4796,-0.4916,-0.4978,-0.5076,-0.5122,-0.5147,-0.5137,-0.509,-0.5007,-0.4987,-0.496,-0.492,-0.4799,-0.4794,-0.4417,-0.4378,-0.488,-0.488,-0.488,-0.488,-0.488,0,-0.4283,-0.4367,-0.4472,-0.463,-0.4664,-0.4723,-0.4844,-0.4914,-0.501,-0.5044,-0.5071,-0.506,-0.5073,-0.5002,-0.4967,-0.4966,-0.4898,-0.4857,-0.4855,-0.4744,-0.4687,-0.4329,-0.4307,-0.4812,-0.4811,-0.4811,-0.4811,0,-0.4282,-0.4396,-0.448,-0.4579,-0.4641,-0.4721,-0.4798,-0.4867,-0.4906,-0.4956,-0.4947,-0.4959,-0.4902,-0.4894,-0.4893,-0.4844,-0.4841,-0.4835,-0.4751,-0.4749,-0.4687,-0.4754,-0.4362,-0.432,-0.4806,-0.4806,-0.4807,0,-0.4268,-0.4429,-0.4435,-0.4492,-0.4599,-0.4637,-0.4718,-0.4791,-0.4836,-0.4844,-0.4892,-0.4874,-0.4846,-0.4831,-0.4796,-0.4797,-0.483,-0.4741,-0.4738,-0.4742,-0.4822,-0.4755,-0.4751,-0.4807,-0.4808,-0.4809,-0.4803,0,-0.4346,-0.4403,-0.4431,-0.4516,-0.4563,-0.4611,-0.4669,-0.4701,-0.4709,-0.4726,-0.4749,-0.4709,-0.4698,-0.4699,-0.4664,-0.4701,-0.4671,-0.4637,-0.4593,-0.4658,-0.4645,-0.4648,-0.4573,-0.457,-0.4568,-0.4567,0,0,-0.4305,-0.4367,-0.4404,-0.4462,-0.4502,-0.4525,-0.4578,-0.4599,-0.4617,-0.4633,-0.4602,-0.4588,-0.4553,-0.4581,-0.4598,-0.4579,-0.4561,-0.4568,-0.4624,-0.4631,-0.4637,-0.4629,-0.4635,-0.4563,-0.4562,-0.4562,-0.4561,0,-0.4328,-0.4356,-0.4391,-0.4435,-0.449,-0.4511,-0.4529,-0.456,-0.4564,-0.4586,-0.4543,-0.4538,-0.4514,-0.4502,-0.4491,-0.4551,-0.4498,-0.4543,-0.4612,-0.4608,-0.4618,-0.4626,-0.4621,-0.4627,-0.4556,-0.4556,-0.4557,0,-0.4322,-0.4361,-0.4374,-0.4434,-0.4451,-0.4499,-0.4475,-0.4507,-0.4539,-0.447,-0.4483,-0.4451,-0.4413,-0.4425,-0.4424,-0.4402,-0.4443,-0.4426,-0.4435,-0.4426,-0.4418,-0.4429,-0.4439,-0.4308,-0.4308,-0.4307,0,0,-0.4336,-0.4368,-0.4416,-0.4439,-0.4461,-0.4474,-0.4485,-0.4488,-0.4486,-0.4477,-0.4448,-0.4416,-0.4403,-0.4395,-0.4368,-0.4384,-0.4352,-0.44,-0.4412,-0.4422,-0.4419,-0.4413,-0.4424,-0.4306,-0.4306,-0.4306,0,0,-0.4331,-0.4388,-0.4392,-0.4425,-0.4457,-0.4473,-0.4481,-0.448,-0.4464,-0.4451,-0.4403,-0.4392,-0.4394,-0.4359,-0.4347,-0.4364,-0.4309,-0.4311,-0.4403,-0.4416,-0.4427,-0.4431,-0.4289,0,0,0,0,0,-0.4368,-0.439,-0.4393,-0.4403,-0.4437,-0.4479,-0.4481,-0.4468,-0.4448,-0.4459,-0.4425,-0.4386,-0.4343,-0.4331,-0.4323,-0.4358,-0.4288,-0.4291,-0.4294,-0.4413,-0.4428,-0.4441,0,0,0,0,0,0,-0.4372,-0.4384,-0.4393,-0.4414,-0.4422,-0.4477,-0.4438,-0.4434,-0.4446,-0.4441,-0.4394,-0.4384,-0.4345,-0.4331,-0.4325,-0.436,-0.4291,-0.4289,-0.4292,-0.4294,-0.4418,-0.443,-0.4441,0,0,0,0,0,-0.4375,-0.4385,-0.4446,-0.4412,-0.4419,-0.4417,-0.4436,-0.4433,-0.4432,-0.4394,-0.4384,-0.4425,-0.4347,-0.4338,-0.4327,-0.4364,-0.4295,-0.4293,-0.4291,-0.4293,-0.4295,-0.4424,0,0,0,0,0,0,-0.4378,-0.4365,-0.4447,-0.4448,-0.4401,-0.4412,-0.4414,-0.4431,-0.4381,-0.4376,-0.4421,-0.4418,-0.4348,-0.4341,-0.4335,-0.437,-0.4298,-0.4296,-0.4294,-0.4292,-0.4294,-0.4296,0,0,0,0,0,0,-0.436,-0.4366,-0.4447,-0.4434,-0.4434,-0.4408,-0.441,-0.4392,-0.4379,-0.4408,-0.4406,-0.442,-0.4348,-0.4344,-0.4338,-0.4311,-0.4301,-0.4299,-0.4297,-0.4296,-0.4294,-0.4295,0,0,0,0,0,0,-0.4362,-0.4367,-0.4433,-0.4433,-0.4432,-0.4438,-0.4388,-0.4411,-0.4408,-0.4408,-0.4405,-0.4403,-0.435,-0.4345,-0.4341,-0.4316,-0.4312,-0.4301,-0.4299,-0.4298,-0.4297,0,0,0,0,0,0,0,-0.4363,-0.4338,-0.4449,-0.4431,-0.443,-0.4462,-0.4462,-0.4461,-0.4408,-0.4406,-0.4405,-0.4404,-0.4313,-0.4311,-0.4308,-0.432,0,0,-0.4301,-0.43,0,0,0,0,0,0,0,0,-0.4336,-0.4338,-0.445,-0.445,-0.4451,-0.4462,-0.4462,-0.4461,-0.4407,-0.4406,-0.4405,-0.4404,-0.4312,-0.4311,-0.4309,0,0,0,0,0,0,0,0,0,0,0,0,0,0,0,-0.445,-0.445,0,-0.4462,-0.4462,-0.4461,-0.4407,-0.4406,-0.4405,-0.4405,-0.4312,-0.431,-0.4309,0,0,0,0,0,0,0,0,0,0,0,0,0,0,0,0,0,0,0,0,0,0,0,0,0,0,0,0,0,0,0,0,0,0,0,0,0,0,0,0,0,0,0,0,0,0,0,0,0,0,0,0,0,0,0,0,0,0,0,0,0,0,0,0,0,0,0,0,0]}],[{"header":{"parameterUnit":"kt","parameterCategory":2,"dx":1,"dy":1,"la1":30.253999710083008,"la2":30.299108505249023,"lo1":-89.0895004272461,"lo2":-89.04439544677734,"nx":28,"ny":28,"refTime":"2022-10-24T21:00:00:Z","depth":"2","parameterNumber":3,"parameterNumberName":"V-component_of_CURRENTS"},"data":[-0.1831,-0.2004,-0.2092,-0.2324,-0.2422,-0.2503,-0.2493,-0.235,-0.2107,-0.178,-0.1437,-0.0889,-0.0135,0.0259,0.0772,0.1085,0.1065,0.1079,0.1188,0.087,0.086,0.1193,0.1078,0,0,0,0,0,-0.177,-0.1881,-0.2032,-0.2176,-0.2289,-0.228,-0.2282,-0.2227,-0.2086,-0.176,-0.1392,-0.0778,-0.0119,0.0461,0.107,0.1483,0.1388,0.1506,0.1297,0.1289,0.1283,0.1216,0.1353,0.1354,0.1355,0.1356,0,0,-0.1659,-0.1754,-0.1857,-0.1991,-0.2069,-0.2133,-0.2156,-0.2084,-0.1972,-0.1685,-0.1341,-0.0868,-0.029,0.0579,0.1031,0.1402,0.1406,0.1447,0.1435,0.1425,0.1374,0.1321,0.1548,0.155,0.1551,0.1552,0.1553,0,-0.1569,-0.1586,-0.1657,-0.1808,-0.1867,-0.1913,-0.1908,-0.19,-0.169,-0.1526,-0.1211,-0.0913,-0.0226,0.0317,0.0941,0.1176,0.1252,0.1359,0.1385,0.1058,0.0991,0.1023,0.1006,0.1168,0.1168,0.1167,0.1167,0.1167,-0.1428,-0.1489,-0.1555,-0.1619,-0.1626,-0.1658,-0.1674,-0.1531,-0.1484,-0.1178,-0.113,-0.0726,-0.0395,0.0284,0.0726,0.1198,0.1187,0.1328,0.1263,0.1216,0.1256,0.1232,0.121,0.1161,0.1162,0.1162,0.1163,0,-0.1353,-0.1348,-0.1428,-0.1425,-0.1431,-0.1471,-0.141,-0.139,-0.1217,-0.1104,-0.1045,-0.0676,-0.0295,0.0082,0.0493,0.0714,0.1043,0.1162,0.0968,0.1011,0.1192,0.1176,0.1422,0.1428,0.1433,0.1436,0.144,0,-0.1222,-0.1266,-0.1263,-0.13,-0.1359,-0.1257,-0.125,-0.1156,-0.0999,-0.0922,-0.0662,-0.0524,-0.0165,0.0106,0.0348,0.072,0.0698,0.093,0.0997,0.085,0.0846,0.0815,0.0805,0.0883,0.0881,0.088,0.0879,0,-0.1105,-0.1122,-0.1185,-0.1178,-0.1127,-0.1112,-0.1067,-0.0902,-0.0844,-0.0641,-0.0567,-0.0309,-0.0179,0.0053,0.0358,0.033,0.0691,0.069,0.0915,0.0922,0.0881,0.0882,0.0877,0.0877,0.0876,0.0876,0.0875,0,-0.0971,-0.1003,-0.1063,-0.104,-0.1032,-0.1014,-0.0913,-0.085,-0.0651,-0.0554,-0.0389,-0.0242,-0.0047,0.0007,0.0318,0.0248,0.0393,0.0523,0.0535,0.0668,0.0714,0.0746,0.0806,0.0671,0.0668,0.0666,0.0664,0,-0.0884,-0.0943,-0.0878,-0.0906,-0.0927,-0.0799,-0.0747,-0.0638,-0.0519,-0.0411,-0.023,-0.0125,-0.0032,0.0024,0.0142,0.0316,0.0409,0.0308,0.0574,0.0581,0.0662,0.0731,0.0594,0.0768,0.0635,0.0638,0.0641,0,-0.0802,-0.0776,-0.0775,-0.0788,-0.0696,-0.0676,-0.0608,-0.0513,-0.0468,-0.0331,-0.0253,-0.0094,-0.0007,0.0063,0.0169,0.0267,0.0367,0.0316,0.0323,0.0386,0.0579,0.0678,0.0708,0.0414,0.0416,0.0418,0.0618,0,-0.0701,-0.0704,-0.0712,-0.0679,-0.0635,-0.0626,-0.0516,-0.0459,-0.0383,-0.0293,-0.0172,-0.0036,0.0084,0.0129,0.019,0.0286,0.0312,0.0345,0.0382,0.0387,0.0473,0.0491,0.0305,0.0306,0.0307,0.0308,0,0,-0.0628,-0.064,-0.0567,-0.057,-0.0544,-0.0435,-0.0441,-0.0365,-0.0251,-0.0201,-0.0173,0.0026,0.0115,0.023,0.0235,0.028,0.034,0.0287,0.0374,0.038,0.0387,0.0469,0.0484,0.031,0.0311,0.0311,0.0311,0,-0.0588,-0.0551,-0.0573,-0.0528,-0.0466,-0.0404,-0.04,-0.0304,-0.0249,-0.0176,-0.0087,0.0003,0.0121,0.0214,0.0271,0.0289,0.0368,0.0305,0.0277,0.038,0.0385,0.039,0.0471,0.0484,0.0314,0.0314,0.0314,0,-0.0523,-0.049,-0.0489,-0.043,-0.038,-0.0355,-0.0282,-0.0245,-0.0212,-0.0099,-0.0031,0.0051,0.0159,0.0234,0.0271,0.029,0.0404,0.0358,0.0353,0.035,0.0458,0.0463,0.0467,0.0412,0.0412,0.0412,0,0,-0.0495,-0.0495,-0.0414,-0.0414,-0.0391,-0.0302,-0.027,-0.0223,-0.0144,-0.011,-0.0022,0.0068,0.0148,0.0199,0.0273,0.0343,0.0407,0.0366,0.0361,0.0357,0.0351,0.0457,0.0461,0.0412,0.0412,0.0412,0,0,-0.0473,-0.041,-0.0381,-0.038,-0.0318,-0.0221,-0.0211,-0.016,-0.0084,-0.0079,0.0029,0.0056,0.0126,0.0188,0.0173,0.0287,0.0311,0.0316,0.0244,0.024,0.0235,0.0208,0.0238,0,0,0,0,0,-0.0402,-0.0421,-0.0396,-0.0386,-0.0299,-0.0237,-0.022,-0.015,-0.0126,-0.0116,-0.003,0.0018,0.0203,0.0192,0.0216,0.023,0.0408,0.0409,0.0409,0.0333,0.0327,0.0322,0,0,0,0,0,0,-0.0397,-0.0387,-0.0395,-0.0306,-0.0285,-0.0237,-0.0185,-0.0165,-0.0126,-0.0118,0.0001,0.0022,0.0094,0.0185,0.0206,0.0217,0.0232,0.0408,0.0409,0.0409,0.0331,0.0326,0.0322,0,0,0,0,0,-0.0393,-0.0384,-0.0275,-0.0303,-0.0285,-0.0193,-0.0185,-0.0168,-0.0133,-0.002,0.0001,-0.0085,0.0092,0.0116,0.0198,0.0206,0.0218,0.0225,0.0409,0.0409,0.0409,0.0328,0,0,0,0,0,0,-0.039,-0.0354,-0.0268,-0.0258,-0.0305,-0.0193,-0.0178,-0.0171,-0.0035,-0.0015,-0.0101,-0.0096,0.0091,0.011,0.0127,0.0197,0.0206,0.0214,0.0219,0.0409,0.0409,0.041,0,0,0,0,0,0,-0.0358,-0.0347,-0.0263,-0.0269,-0.0259,-0.0194,-0.0181,-0.0105,-0.0034,-0.0122,-0.0115,-0.01,0.007,0.0105,0.0119,0.0236,0.0198,0.0205,0.021,0.0213,0.0409,0.041,0,0,0,0,0,0,-0.0351,-0.0341,-0.0271,-0.0263,-0.0254,-0.0134,-0.0123,-0.0033,-0.0058,-0.0128,-0.0056,-0.0056,0.0065,0.008,0.0113,0.0223,0.0232,0.0198,0.0203,0.0206,0.0209,0,0,0,0,0,0,0,-0.0345,-0.0441,-0.0331,-0.0258,-0.025,-0.0166,-0.0163,-0.0159,-0.0058,-0.0057,-0.0057,-0.0056,0.0156,0.0164,0.0172,0.0213,0,0,0.0197,0.0201,0,0,0,0,0,0,0,0,-0.0443,-0.0442,-0.0331,-0.0329,-0.0327,-0.0165,-0.0163,-0.016,-0.0058,-0.0057,-0.0057,-0.0056,0.0158,0.0165,0.0171,0,0,0,0,0,0,0,0,0,0,0,0,0,0,0,-0.0331,-0.0329,0,-0.0165,-0.0163,-0.0161,-0.0057,-0.0057,-0.0057,-0.0056,0.016,0.0165,0.0171,0,0,0,0,0,0,0,0,0,0,0,0,0,0,0,0,0,0,0,0,0,0,0,0,0,0,0,0,0,0,0,0,0,0,0,0,0,0,0,0,0,0,0,0,0,0,0,0,0,0,0,0,0,0,0,0,0,0,0,0,0,0,0,0,0,0,0,0,0]}]],[[{"header":{"parameterUnit":"kt","parameterCategory":2,"dx":1,"dy":1,"la1":30.253999710083008,"la2":30.299108505249023,"lo1":-89.0895004272461,"lo2":-89.04439544677734,"nx":28,"ny":28,"refTime":"2022-10-24T21:00:00:Z","depth":"4","parameterNumber":2,"parameterNumberName":"U-component_of_CURRENTS"},"data":[-0.2057,-0.2143,-0.2185,-0.2165,-0.2192,-0.2331,-0.2461,-0.2649,-0.2617,-0.2879,-0.2835,-0.3033,-0.2978,-0.3175,-0.294,-0.2955,-0.2936,-0.315,-0.3141,-0.325,-0.3277,-0.3301,-0.3226,0,0,0,0,0,-0.2153,-0.2171,-0.2276,-0.24,-0.2557,-0.2644,-0.2884,-0.3029,-0.3282,-0.317,-0.3293,-0.3254,-0.3158,-0.3214,-0.3027,-0.3302,-0.3271,-0.3073,-0.3154,-0.3267,-0.3296,-0.3214,0,0,0,0,0,0,-0.2291,-0.2334,-0.2499,-0.2626,-0.2798,-0.2862,-0.3004,-0.3092,-0.3198,-0.3464,-0.3444,-0.3533,-0.3675,-0.3511,-0.3443,-0.3331,-0.3262,-0.3143,-0.3177,-0.3206,-0.3117,-0.304,-0.2772,0,0,0,0,0,-0.2409,-0.2535,-0.2653,-0.283,-0.2977,-0.3118,-0.3298,-0.3331,-0.3582,-0.3799,-0.3773,-0.374,-0.3716,-0.3657,-0.358,-0.3483,-0.3678,-0.3555,-0.3569,-0.3517,-0.3488,-0.3463,-0.3478,-0.3409,-0.3413,-0.3415,-0.3416,0,-0.2548,-0.2615,-0.29,-0.2985,-0.3113,-0.3296,-0.3411,-0.3655,-0.3736,-0.3967,-0.3979,-0.4059,-0.4109,-0.3845,-0.3896,-0.376,-0.3698,-0.3633,-0.3579,-0.3536,-0.3502,-0.351,-0.3516,-0.344,-0.3438,-0.3436,-0.3435,0,-0.2609,-0.2778,-0.2929,-0.3187,-0.3274,-0.3374,-0.3627,-0.3714,-0.3906,-0.4012,-0.4062,-0.4205,-0.4185,-0.4194,-0.4145,-0.4,-0.3882,-0.3782,-0.4054,-0.4026,-0.3561,-0.3558,-0.348,-0.3471,-0.3463,-0.3457,-0.3452,0,-0.2745,-0.2852,-0.3096,-0.3161,-0.3315,-0.3486,-0.3644,-0.3776,-0.3942,-0.4024,-0.4157,-0.4192,-0.4242,-0.4234,-0.4169,-0.3989,-0.4127,-0.3805,-0.3759,-0.4005,-0.4001,-0.395,-0.394,-0.4045,-0.4045,-0.4046,-0.4046,0,-0.2782,-0.2997,-0.3122,-0.3191,-0.3419,-0.352,-0.3639,-0.3806,-0.3894,-0.4053,-0.412,-0.4187,-0.4215,-0.4188,-0.4127,-0.4118,-0.4096,-0.4067,-0.3801,-0.3784,-0.3947,-0.3936,-0.4046,-0.4046,-0.4046,-0.4046,-0.4046,0,-0.2883,-0.2988,-0.3138,-0.3339,-0.3387,-0.349,-0.367,-0.3774,-0.3918,-0.399,-0.4064,-0.4085,-0.4135,-0.4084,-0.4081,-0.4081,-0.4031,-0.3995,-0.3994,-0.3718,-0.3642,-0.3829,-0.3941,-0.394,-0.3939,-0.3939,-0.3938,0,-0.2879,-0.3021,-0.3118,-0.3267,-0.3346,-0.3464,-0.3574,-0.3686,-0.3774,-0.3875,-0.3905,-0.3974,-0.3941,-0.3971,-0.3985,-0.3955,-0.3963,-0.3951,-0.3879,-0.3876,-0.3652,-0.3697,-0.3944,-0.3931,-0.3932,-0.3932,-0.3933,0,-0.2849,-0.304,-0.3062,-0.3141,-0.3287,-0.3341,-0.3468,-0.3581,-0.3663,-0.3745,-0.3836,-0.388,-0.3886,-0.389,-0.3879,-0.3892,-0.3946,-0.3852,-0.3849,-0.3843,-0.3958,-0.3717,-0.3698,-0.3937,-0.3938,-0.3939,-0.3928,0,-0.2909,-0.3,-0.304,-0.3152,-0.3222,-0.3302,-0.3387,-0.347,-0.3539,-0.3585,-0.368,-0.3686,-0.3729,-0.3746,-0.3727,-0.3795,-0.3765,-0.3733,-0.3682,-0.3762,-0.3744,-0.3749,-0.3654,-0.3652,-0.365,-0.3648,0,0,-0.2858,-0.2936,-0.299,-0.306,-0.3123,-0.3185,-0.326,-0.3317,-0.3408,-0.3454,-0.3461,-0.3542,-0.3546,-0.3606,-0.3642,-0.3638,-0.3627,-0.3642,-0.3723,-0.3732,-0.3739,-0.3727,-0.3734,-0.3644,-0.3643,-0.3643,-0.3642,0,-0.2851,-0.2913,-0.2966,-0.3025,-0.3117,-0.3154,-0.319,-0.3267,-0.3319,-0.3406,-0.34,-0.3446,-0.3499,-0.3506,-0.3512,-0.3606,-0.3565,-0.3621,-0.3699,-0.3705,-0.3717,-0.3726,-0.3717,-0.3725,-0.3637,-0.3637,-0.3637,0,-0.2825,-0.2873,-0.2905,-0.2988,-0.3037,-0.3103,-0.3103,-0.3182,-0.3247,-0.3221,-0.3327,-0.3333,-0.3329,-0.3394,-0.3426,-0.34,-0.3501,-0.3479,-0.3489,-0.348,-0.3481,-0.3495,-0.3508,-0.3346,-0.3345,-0.3345,0,0,-0.2819,-0.2873,-0.2934,-0.2987,-0.3022,-0.3076,-0.3115,-0.3152,-0.3196,-0.3226,-0.3256,-0.3283,-0.3305,-0.3336,-0.3347,-0.3408,-0.3375,-0.3448,-0.3461,-0.3473,-0.347,-0.3475,-0.3488,-0.3342,-0.3342,-0.3342,0,0,-0.2805,-0.2877,-0.2904,-0.2964,-0.3021,-0.3061,-0.3109,-0.3139,-0.3195,-0.3216,-0.3212,-0.322,-0.3292,-0.3277,-0.3251,-0.3347,-0.3284,-0.329,-0.3376,-0.3393,-0.3406,-0.34,-0.321,0,0,0,0,0,-0.2826,-0.2865,-0.289,-0.2907,-0.2989,-0.3047,-0.3059,-0.3108,-0.313,-0.3169,-0.32,-0.3183,-0.3262,-0.3237,-0.3241,-0.3304,-0.3315,-0.332,-0.3324,-0.3447,-0.3464,-0.3479,0,0,0,0,0,0,-0.2833,-0.2851,-0.2889,-0.2927,-0.2947,-0.3045,-0.3041,-0.3054,-0.3127,-0.3134,-0.3176,-0.3181,-0.3169,-0.3234,-0.3238,-0.3298,-0.3209,-0.3317,-0.3321,-0.3324,-0.3453,-0.3467,-0.348,0,0,0,0,0,-0.2839,-0.2853,-0.2978,-0.2927,-0.2944,-0.3014,-0.3041,-0.3053,-0.3119,-0.3123,-0.3132,-0.3163,-0.3167,-0.3174,-0.3236,-0.3298,-0.3206,-0.3208,-0.3319,-0.3323,-0.3326,-0.346,0,0,0,0,0,0,-0.2843,-0.2853,-0.2983,-0.299,-0.2934,-0.3012,-0.3026,-0.3051,-0.3103,-0.3114,-0.3102,-0.3106,-0.3166,-0.3172,-0.3176,-0.33,-0.3204,-0.3205,-0.3206,-0.3322,-0.3324,-0.3327,0,0,0,0,0,0,-0.2846,-0.2859,-0.2986,-0.2992,-0.3,-0.3009,-0.3022,-0.3035,-0.3102,-0.3078,-0.3084,-0.3103,-0.3157,-0.317,-0.3174,-0.3192,-0.3202,-0.3203,-0.3204,-0.3205,-0.3324,-0.3326,0,0,0,0,0,0,-0.2852,-0.2863,-0.299,-0.2996,-0.3003,-0.3081,-0.302,-0.31,-0.3122,-0.3074,-0.3125,-0.3127,-0.3155,-0.316,-0.3172,-0.3188,-0.3191,-0.3202,-0.3203,-0.3204,-0.3204,0,0,0,0,0,0,0,-0.2857,-0.2776,-0.2947,-0.3,-0.3006,-0.3055,-0.3056,-0.3058,-0.3123,-0.3124,-0.3125,-0.3126,-0.3193,-0.3195,-0.3197,-0.3185,0,0,-0.3202,-0.3202,0,0,0,0,0,0,0,0,-0.2773,-0.2775,-0.2948,-0.2949,-0.2951,-0.3055,-0.3056,-0.3057,-0.3123,-0.3124,-0.3125,-0.3126,-0.3194,-0.3195,-0.3196,0,0,0,0,0,0,0,0,0,0,0,0,0,0,0,-0.2948,-0.2949,0,-0.3055,-0.3056,-0.3057,-0.3123,-0.3124,-0.3125,-0.3125,-0.3194,-0.3195,-0.3196,0,0,0,0,0,0,0,0,0,0,0,0,0,0,0,0,0,0,0,0,0,0,0,0,0,0,0,0,0,0,0,0,0,0,0,0,0,0,0,0,0,0,0,0,0,0,0,0,0,0,0,0,0,0,0,0,0,0,0,0,0,0,0,0,0,0,0,0,0]}],[{"header":{"parameterUnit":"kt","parameterCategory":2,"dx":1,"dy":1,"la1":30.253999710083008,"la2":30.299108505249023,"lo1":-89.0895004272461,"lo2":-89.04439544677734,"nx":28,"ny":28,"refTime":"2022-10-24T21:00:00:Z","depth":"4","parameterNumber":3,"parameterNumberName":"V-component_of_CURRENTS"},"data":[-0.1329,-0.1466,-0.1536,-0.1701,-0.1801,-0.1906,-0.1917,-0.1834,-0.1715,-0.1544,-0.1264,-0.1059,-0.0562,-0.0726,-0.006,0.0033,0.0122,0.0668,0.0672,0.0815,0.0813,0.0812,0.0701,0,0,0,0,0,-0.1296,-0.1393,-0.1529,-0.1657,-0.1773,-0.183,-0.1843,-0.1803,-0.1672,-0.1524,-0.1392,-0.1066,-0.0561,-0.0315,-0.0046,0.0088,0.0463,0.0404,0.0512,0.0814,0.0812,0.0705,0,0,0,0,0,0,-0.1254,-0.1332,-0.144,-0.1562,-0.1681,-0.1748,-0.1748,-0.1676,-0.1614,-0.1362,-0.1283,-0.0875,-0.0615,-0.0172,0.0128,0.0409,0.0445,0.0489,0.0505,0.0507,0.0375,0.0247,0.0302,0,0,0,0,0,-0.1198,-0.1241,-0.1309,-0.1465,-0.1544,-0.1607,-0.1634,-0.1622,-0.1483,-0.1383,-0.1134,-0.084,-0.0501,-0.0101,0.0226,0.05,0.071,0.0788,0.0788,0.073,0.0667,0.069,0.0676,0.0807,0.0807,0.0807,0.0807,0,-0.1119,-0.1173,-0.127,-0.1341,-0.1367,-0.1419,-0.145,-0.1361,-0.133,-0.1121,-0.1085,-0.0784,-0.0562,-0.0079,0.0242,0.0637,0.0676,0.0785,0.0722,0.0662,0.069,0.0675,0.0662,0.0806,0.0806,0.0806,0.0806,0,-0.1078,-0.1095,-0.1174,-0.1201,-0.1222,-0.1265,-0.1253,-0.1245,-0.1123,-0.1046,-0.1001,-0.0705,-0.0412,-0.0092,0.0253,0.0397,0.0641,0.0712,0.0613,0.0647,0.0667,0.0654,0.0804,0.0805,0.0805,0.0805,0.0806,0,-0.1002,-0.1048,-0.1073,-0.1106,-0.1171,-0.11,-0.1115,-0.1047,-0.0936,-0.0884,-0.0672,-0.0571,-0.0252,-0.0031,0.0171,0.0424,0.0463,0.0556,0.0598,0.0528,0.0516,0.0566,0.0556,0.0632,0.0631,0.063,0.0629,0,-0.0925,-0.0954,-0.1012,-0.1009,-0.0985,-0.0986,-0.0962,-0.084,-0.08,-0.0643,-0.059,-0.0372,-0.0265,-0.0068,0.0183,0.0165,0.0461,0.0467,0.0554,0.0553,0.0555,0.0548,0.0627,0.0627,0.0627,0.0626,0.0626,0,-0.0834,-0.0864,-0.0918,-0.0913,-0.0909,-0.0906,-0.0837,-0.0792,-0.0641,-0.0567,-0.0434,-0.0317,-0.0152,-0.0106,0.0158,0.0099,0.0219,0.0328,0.0337,0.0336,0.0362,0.0397,0.0443,0.0441,0.0439,0.0437,0.0435,0,-0.0772,-0.0821,-0.0778,-0.0807,-0.0825,-0.0735,-0.0698,-0.0617,-0.0528,-0.0447,-0.0299,-0.022,-0.0139,-0.0098,0.0008,0.015,0.0232,0.0148,0.0358,0.0364,0.033,0.0371,0.0247,0.0408,0.0411,0.0414,0.0415,0,-0.0708,-0.0698,-0.07,-0.0714,-0.065,-0.0637,-0.0586,-0.0518,-0.0488,-0.038,-0.0322,-0.019,-0.0122,-0.0067,0.0018,0.0105,0.0194,0.0141,0.0147,0.0196,0.0371,0.0341,0.0355,0.0235,0.0237,0.0239,0.0396,0,-0.0631,-0.0642,-0.065,-0.063,-0.0599,-0.0598,-0.0516,-0.0476,-0.0422,-0.0355,-0.026,-0.0151,-0.0059,-0.002,0.0027,0.0111,0.0127,0.0154,0.018,0.0192,0.0258,0.0273,0.0111,0.0112,0.0112,0.0113,0,0,-0.0576,-0.0591,-0.0541,-0.0544,-0.0529,-0.0453,-0.0461,-0.0405,-0.0324,-0.0286,-0.0267,-0.0113,-0.0044,0.005,0.0058,0.0092,0.0138,0.0094,0.0177,0.0183,0.019,0.0253,0.0267,0.0114,0.0114,0.0115,0.0115,0,-0.0543,-0.0523,-0.0542,-0.0512,-0.0473,-0.043,-0.0428,-0.0362,-0.0323,-0.0269,-0.0203,-0.013,-0.0043,0.0031,0.0076,0.0096,0.0154,0.0107,0.0092,0.018,0.0185,0.0191,0.0254,0.0265,0.0117,0.0117,0.0116,0,-0.0493,-0.0472,-0.0475,-0.0439,-0.0407,-0.0391,-0.034,-0.0319,-0.0296,-0.0214,-0.0164,-0.0102,-0.002,0.0039,0.0068,0.0081,0.0177,0.0137,0.0134,0.0129,0.0222,0.0227,0.0233,0.0168,0.0168,0.0168,0,0,-0.0469,-0.0474,-0.042,-0.0427,-0.0412,-0.0353,-0.0333,-0.0302,-0.0246,-0.0223,-0.0158,-0.0091,-0.003,0.001,0.0064,0.012,0.0169,0.014,0.0138,0.0135,0.0129,0.022,0.0225,0.0167,0.0167,0.0167,0,0,-0.0452,-0.0412,-0.0395,-0.0401,-0.0361,-0.0295,-0.0292,-0.0257,-0.0204,-0.0201,-0.0123,-0.0103,-0.0049,-0.0003,-0.0017,0.0075,0.0088,0.0093,0.0044,0.0042,0.004,0.0017,0.0028,0,0,0,0,0,-0.0401,-0.0419,-0.0404,-0.0399,-0.0346,-0.0305,-0.0295,-0.025,-0.0234,-0.0229,-0.0166,-0.0133,0.0007,-0.0004,0.0014,0.0029,0.0161,0.0162,0.0163,0.0113,0.011,0.0108,0,0,0,0,0,0,-0.0398,-0.0393,-0.0403,-0.0344,-0.0331,-0.0305,-0.027,-0.0257,-0.0234,-0.0229,-0.0145,-0.013,-0.0077,-0.0009,0.0006,0.0019,0.0023,0.0162,0.0163,0.0163,0.0112,0.011,0.0108,0,0,0,0,0,-0.0396,-0.0391,-0.0328,-0.0342,-0.0331,-0.0273,-0.027,-0.0259,-0.0238,-0.0158,-0.0143,-0.0208,-0.0079,-0.0061,0.0,0.001,0.0013,0.0018,0.0162,0.0163,0.0164,0.0111,0,0,0,0,0,0,-0.0394,-0.037,-0.0323,-0.0317,-0.0344,-0.0272,-0.0263,-0.0261,-0.0166,-0.0153,-0.0217,-0.0214,-0.008,-0.0066,-0.0053,0.0004,0.0004,0.001,0.0013,0.0163,0.0163,0.0164,0,0,0,0,0,0,-0.0372,-0.0365,-0.032,-0.0325,-0.0319,-0.0273,-0.0264,-0.0208,-0.0165,-0.0229,-0.0225,-0.0216,-0.0093,-0.0069,-0.0059,0.0028,-0.0002,0.0003,0.0007,0.0009,0.0163,0.0164,0,0,0,0,0,0,-0.0367,-0.0361,-0.0326,-0.0321,-0.0316,-0.0238,-0.0219,-0.0163,-0.0188,-0.0233,-0.0187,-0.0187,-0.0096,-0.0085,-0.0063,0.0019,0.0026,-0.0002,0.0002,0.0004,0.0006,0,0,0,0,0,0,0,-0.0364,-0.0423,-0.0365,-0.0318,-0.0313,-0.0258,-0.0256,-0.0254,-0.0188,-0.0188,-0.0187,-0.0187,-0.0033,-0.0027,-0.0021,0.0012,0,0,-0.0003,0.0,0,0,0,0,0,0,0,0,-0.0424,-0.0423,-0.0365,-0.0364,-0.0362,-0.0258,-0.0256,-0.0254,-0.0188,-0.0188,-0.0188,-0.0187,-0.0031,-0.0027,-0.0022,0,0,0,0,0,0,0,0,0,0,0,0,0,0,0,-0.0365,-0.0364,0,-0.0257,-0.0256,-0.0254,-0.0188,-0.0188,-0.0188,-0.0187,-0.003,-0.0026,-0.0022,0,0,0,0,0,0,0,0,0,0,0,0,0,0,0,0,0,0,0,0,0,0,0,0,0,0,0,0,0,0,0,0,0,0,0,0,0,0,0,0,0,0,0,0,0,0,0,0,0,0,0,0,0,0,0,0,0,0,0,0,0,0,0,0,0,0,0,0,0]}]]]